Regional Weather Roundup
Issued by NWS

Home | Current Version | Previous Version | Text Only | Print | Product List | Glossary On
Versions: 1 2 3 4 5 6 7 8 9 10 11 12 13 14 15 16 17 18 19 20 21 22 23 24 25 26 27 28 29 30 31 32 33 34 35 36 37 38 39 40 41 42 43 44 45 46 47 48 49 50
000
ASUS45 KBOU 030310
RWRCO

WEATHER ROUNDUP FOR COLORADO
NATIONAL WEATHER SERVICE PUEBLO CO
900 PM MDT SUN AUG 02 2015

NOTE: "FAIR" INDICATES FEW OR NO CLOUDS BELOW 12000 FEET WITH NO
SIGNIFICANT WEATHER AND/OR OBSTRUCTIONS TO VISIBILITY.

COZ001>005-013-030-031-030400-
...NORTHWEST COLORADO...

CITY           SKY/WX    TMP DP  RH WIND       PRES   REMARKS
CRAIG          LGT RAIN  61  53  75 S17G23    30.17S
HAYDEN         CLOUDY    63  52  67 SE9       30.22R
MEEKER         CLOUDY    69  47  45 E9G29     30.21R
MOUNT WERNER   NOT AVBL
STEAMBOAT SPGS FAIR      63  49  61 S7        30.22F
WALDEN         FAIR      64  37  36 S7        30.29R
$$

COZ006>008-011-030400-
...WEST CENTRAL VALLEYS...

CITY           SKY/WX    TMP DP  RH WIND       PRES   REMARKS
GRAND JUNCTION CLOUDY    65  61  87 E6        30.11R
MONTROSE       LGT RAIN  63  61  93 SW7       30.18F
EAGLE          CLOUDY    66  50  55 SW15      30.24F
RIFLE          LGT RAIN  63  59  87 S5        30.21S
DELTA          NOT AVBL
NUCLA          MOCLDY    64  59  82 NE7       30.18F
$$

COZ017>023-064>068-030400-
...SOUTHWEST COLORADO...

CITY           SKY/WX    TMP DP  RH WIND       PRES   REMARKS
DURANGO        LGT RAIN  59  55  87 NE18      30.22S
CORTEZ         CLEAR     66  60  81 W7        30.15S
PAGOSA SPRINGS CLOUDY    57  57  98 CALM      30.29F
TELLURIDE      HVY RAIN  54  54  99 CALM      30.39R
WOLF CREEK PAS NOT AVBL
$$

COZ009-010-012-014-032>034-037-058>063-030400-
...CENTRAL COLORADO...

CITY           SKY/WX    TMP DP  RH WIND       PRES   REMARKS
ASPEN          LGT RAIN  56  53  90 VRB3      30.34S
BUENA VISTA    LGT RAIN  56  51  82 W8        30.37R
COPPER MTN     CLOUDY    54  36  50 SE18      30.59S
BERTHOUD PASS  CLOUDY    45  34  65 SE13      30.65S
COTTONWOOD PAS DRIZZLE   52  50  93 N3        30.48R
GUNNISON       CLOUDY    59  54  82 NE5       30.35S
KREMMLING      CLOUDY    70  41  35 W5        30.26S
LEADVILLE      LGT RAIN  50  49  96 S14       30.47R
MONARCH PASS   DRIZZLE   43  41  93 E15       30.68R
SALIDA         CLOUDY    62  55  75 NW6       30.39R
NIWOT RIDGE    NOT AVBL
SUNLIGHT       RAIN      46  46 100 E3        30.54F
WILKERSON PASS RAIN      45  39  81 S12G22    30.59S
$$

COZ069>075-030400-
...SAN LUIS VALLEY/SANGRE DE CRISTO MOUNTAINS...

CITY           SKY/WX    TMP DP  RH WIND       PRES   REMARKS
ALAMOSA        CLOUDY    61  53  75 SW9       30.28R
LA VETA PASS   CLOUDY    50  41  71 MISG      30.47R
SAGUACHE       CLOUDY    57  54  88 CALM      30.34R
$$

COZ035-036-038>040-030400-
...NORTHERN COLORADO FRONT RANGE...

CITY           SKY/WX    TMP DP  RH WIND       PRES   REMARKS
DENVER INTL AP CLOUDY    75  46  35 S8        30.09R
DMNS CITY PARK NOT AVBL
AURORA         CLOUDY    72  48  41 S12       30.12R
FRONT RANGE AP CLOUDY    75  45  33 S17       30.11R
ERIE MUNI ARPT FAIR      73  48  41 SW3       30.06S
BOULDER MUN AP FAIR      73  46  38 S5        30.07R
CENTENNIAL     CLOUDY    72  49  44 S16G22    30.13R
BROOMFIELD     CLOUDY    73  48  40 W6        30.11R
LOVELAND       CLOUDY    73  46  38 S6        30.05R
LONGMONT       FAIR      74  50  41 CALM      30.07R
$$

COZ041-046-047-076>085-087-088-030400-
...PIKES PEAK/PALMER DIVIDE AND SOUTHERN FOOTHILLS...

CITY           SKY/WX    TMP DP  RH WIND       PRES   REMARKS
COLO. SPRINGS  CLOUDY    74  46  36 NW6       30.17F
A. F. ACADEMY  CLOUDY    66  55  68 NW10      30.21R
ELLICOTT       MOCLDY   N/A N/A N/A W6        30.15R
FALCON         CLOUDY    65  52  61 N7        30.23F
FORT CARSON    CLOUDY    73  48  40 NW16G24   30.13S
LIMON          CLOUDY    75  47  36 CALM      30.11R
MONUMENT HILL  NOT AVBL
TRINIDAD       CLOUDY    64  57  78 SW16      30.13S
$$

COZ042>045-048>051-090-091-030400-
...NORTHEAST COLORADO...

CITY           SKY/WX    TMP DP  RH WIND       PRES   REMARKS
GREELEY ARPT   CLOUDY    77  48  36 SW9       30.04S
AKRON          MOCLDY    75  48  38 SW8       30.05R
BURLINGTON     MOCLDY    77  55  46 S9        30.03R
WRAY           FAIR      75  53  45 E7        30.00R
STERLING       FAIR      77  52  41 SE5       30.00R
HOLYOKE        FAIR      73  55  53 SE9       30.01R
FORT MORGAN    FAIR      73  49  43 SE6       30.05R
$$

COZ086-089-092>099-030400-
...SOUTHEAST COLORADO...

CITY           SKY/WX    TMP DP  RH WIND       PRES   REMARKS
PUEBLO         CLOUDY    80  51  36 S8        30.04R
LA JUNTA       CLOUDY    78  54  43 SW9       30.03R
LAMAR          MOCLDY    77  54  44 SE10      29.97R
SPRINGFIELD      N/A     77  63  61 E7        30.03R
$$




USA.gov is the U.S. government's official web portal to all federal, state and local government web resources and services.